Regional Weather Roundup
Issued by NWS

Home | Current Version | Previous Version | Graphics & Text | Print | Product List | Glossary On
Versions: 1 2 3 4 5 6 7 8 9 10 11 12 13 14 15 16 17 18 19 20 21 22 23 24 25 26 27 28 29 30 31 32 33 34 35 36 37 38 39 40 41 42 43 44 45 46 47 48 49 50
000
ASUS45 KABQ 231410
RWRNM
WEATHER ROUNDUP FOR NEW MEXICO
NATIONAL WEATHER SERVICE ALBUQUERQUE NM
800 AM MDT TUE SEP 23 2014

NOTE: "FAIR" MEANS FEW OR NO CLOUDS BELOW 12,000 FEET AGL WITH NO
       SIGNIFICANT WEATHER OR OBSTRUCTIONS TO VISION.

      THIS PRODUCT IS RELEASED AS TWO VERSIONS.  ONE VERSION NEAR
      THE TOP OF THE HOUR CONTAINING PRELIMINARY DATA FROM ALBUQUERQUE
      AND OTHER STATIONS.  A FINAL VERSION WITH ADDITIONAL DATA IS
      ISSUED ABOUT 10 MINUTES AFTER THE HOUR.

NMZ501-503-504-510>518-231500-
NORTHWEST PLATEAU/NORTHCENTRAL MOUNTAINS

CITY           SKY/WX    TMP DP  RH WIND       PRES   REMARKS
FARMINGTON     SUNNY     56  44  64 E9        30.25R
LOS ALAMOS     PTSUNNY   55  55 100 CALM      30.37R
SANTA FE       MOSUNNY   60  57  89 CALM      30.31R
TAOS           PTSUNNY   54  48  82 CALM      30.36R
ANGEL FIRE     CLOUDY    52  47  83 E3        30.42R

$$
NMZ402-403-502-505>509-231500-
WESTCENTRAL MOUNTAINS/SOUTHWEST MOUNTAINS

CITY           SKY/WX    TMP DP  RH WIND       PRES   REMARKS
GALLUP         SUNNY     54  53  97 CALM      30.32R
GRANTS         FOG       54  54 100 NW5       30.34R VSB<1/4
SILVER CITY    SUNNY     63  63 100 CALM      30.28R

$$
NMZ407-409-411-412-231500-
SOUTHERN DESERTS

CITY           SKY/WX    TMP DP  RH WIND       PRES   REMARKS
LORDSBURG      FAIR      66  63  88 N28G35    30.19R
DEMING         MOSUNNY   65  64  97 E6        30.20R FOG
LAS CRUCES     CLOUDY    65  64  94 NE3       30.23R
HOLLOMAN AFB   CLOUDY    68  60  75 S3        30.20R
ALAMOGORDO     MOSUNNY   64  64 100 CALM      30.21R
T OR C         SUNNY     63  60  90 CALM      30.24R

$$
NMZ519>523-231500-
CENTRAL VALLEYS/CENTRAL HIGHLANDS

CITY           SKY/WX    TMP DP  RH WIND       PRES   REMARKS
ALBUQUERQUE    MOSUNNY   60  56  86 CALM      30.28R
DOUBLE EAGLE   MOSUNNY   55  55 100 CALM      30.30R
MORIARTY ARPT  CLOUDY    58  56  93 CALM      30.32R FOG
CLINES CORNERS CLOUDY    56  55  97 W8        30.34R
BELEN          FAIR      59  58  97 CALM      30.26S
SOCORRO        FAIR      62  59  90 SE5       30.25R

$$
NMZ524>526-539-540-231500-
SOUTHCENTRAL MOUNTAINS

CITY           SKY/WX    TMP DP  RH WIND       PRES   REMARKS
RUIDOSO        NOT AVBL

$$
NMZ527>531-231500-
NORTHEAST HIGHLANDS/NORTHEAST PLAINS

CITY           SKY/WX    TMP DP  RH WIND       PRES   REMARKS
LAS VEGAS      CLOUDY    57  54  89 NW5       30.31R
RATON          PTSUNNY   58  56  93 CALM      30.26S
CLAYTON        CLOUDY    63  59  87 SW17      30.19R

$$
NMZ532>537-231500-
EASTCENTRAL PLAINS

CITY           SKY/WX    TMP DP  RH WIND       PRES   REMARKS
TUCUMCARI      PTSUNNY   65  60  84 SW13      30.19R
CANNON AFB     PTSUNNY   63  61  94 S8        30.23R FOG
CLOVIS AIRPORT   N/A     63  61  94 S13       30.25S

$$
NMZ028-029-538-231500-
SOUTHEAST PLAINS

CITY           SKY/WX    TMP DP  RH WIND       PRES   REMARKS
ROSWELL        PTSUNNY   66  63  90 S3        30.19R FOG
CARLSBAD       CLOUDY    65  32  29 CALM      30.18R HAZE
HOBBS          PTSUNNY   63  63 100 E6        30.22S FOG


$$



USA.gov is the U.S. government's official web portal to all federal, state and local government web resources and services.